N621FZ KSAV-KAGS

Flight info

Callsign N621FZ
Flight time N/A
Altitude VFR
Route
Aircraft P28A/L-VGD/C

Departure

Time 2026-04-19 03:15
Airport Savannah Hilton Head International Airport (KSAV)

Arrival

Time N/A
Airport Augusta Regional At Bush Field (KAGS)
Time Latitude Longitude Altitude Speed Heading
2026-04-19 03:06 32.13455 -81.19469 51 ft 0 kts 88°
2026-04-19 03:10 32.13446 -81.19459 51 ft 4 kts 218°
2026-04-19 03:10 32.13482 -81.19489 32 ft 11 kts 337°
2026-04-19 03:10 32.13547 -81.19544 53 ft 11 kts 301°
2026-04-19 03:10 32.13556 -81.19630 53 ft 10 kts 264°
2026-04-19 03:11 32.13557 -81.19698 54 ft 7 kts 274°
2026-04-19 03:11 32.13558 -81.19748 55 ft 3 kts 266°
2026-04-19 03:12 32.13558 -81.19757 55 ft 5 kts 267°
2026-04-19 03:12 32.13557 -81.19842 58 ft 14 kts 271°
2026-04-19 03:12 32.13557 -81.19897 60 ft 0 kts 269°
2026-04-19 03:13 32.13557 -81.19905 60 ft 2 kts 265°
2026-04-19 03:14 32.13555 -81.19953 59 ft 10 kts 268°
2026-04-19 03:14 32.13496 -81.20012 59 ft 17 kts 179°
2026-04-19 03:14 32.13234 -81.20011 55 ft 62 kts 180°
2026-04-19 03:14 32.12733 -81.20008 96 ft 76 kts 181°
2026-04-19 03:15 32.12203 -81.20010 253 ft 78 kts 181°
2026-04-19 03:15 32.11647 -81.19989 397 ft 82 kts 180°
2026-04-19 03:15 32.11172 -81.20251 603 ft 83 kts 230°
2026-04-19 03:15 32.11245 -81.20975 727 ft 102 kts 305°
2026-04-19 03:16 32.11882 -81.21351 875 ft 106 kts 353°
2026-04-19 03:16 32.12605 -81.21413 999 ft 104 kts 354°
2026-04-19 03:16 32.13330 -81.21469 1045 ft 107 kts 355°
2026-04-19 03:16 32.14074 -81.21550 1086 ft 109 kts 355°
2026-04-19 03:17 32.14842 -81.21643 1115 ft 113 kts 355°
2026-04-19 03:17 32.15607 -81.21476 1090 ft 114 kts 28°
2026-04-19 03:17 32.16354 -81.21155 1163 ft 113 kts 19°
2026-04-19 03:17 32.17099 -81.20888 1178 ft 113 kts 20°
2026-04-19 03:18 32.17865 -81.20648 1218 ft 117 kts
2026-04-19 03:18 32.18650 -81.20875 1173 ft 121 kts 324°
2026-04-19 03:18 32.19410 -81.21368 1115 ft 127 kts 329°
2026-04-19 03:18 32.20189 -81.21844 1093 ft 127 kts 328°
2026-04-19 03:19 32.20963 -81.22330 1137 ft 127 kts 330°
2026-04-19 03:19 32.21745 -81.22786 1150 ft 126 kts 330°
2026-04-19 03:19 32.22513 -81.23291 1134 ft 125 kts 330°
2026-04-19 03:19 32.23256 -81.23780 1285 ft 116 kts 331°
2026-04-19 03:20 32.23952 -81.24225 1452 ft 114 kts 328°
2026-04-19 03:20 32.24651 -81.24679 1524 ft 116 kts 328°
2026-04-19 03:20 32.25350 -81.25147 1649 ft 115 kts 328°
2026-04-19 03:20 32.26014 -81.25626 1834 ft 109 kts 323°
2026-04-19 03:21 32.26700 -81.26024 1933 ft 111 kts 336°
2026-04-19 03:21 32.27395 -81.26412 2019 ft 110 kts 328°
2026-04-19 03:21 32.28066 -81.26822 2176 ft 107 kts 329°
2026-04-19 03:21 32.28504 -81.27093 2293 ft 107 kts 325°